COSMOS 1275 DEB, 42124

Orbit data source: Space-Track

COSMOS 1275 DEB, 42124 is space debris in LEO originally from a launch on Thu, 04 Jun 1981 UTC launched from the Plesetsk Missile And Space Complex (PKMTR). Debris objects in space refer to the collection of defunct objects orbiting the Earth. Examples of debris include non-operational satellites, rocket bodies, and fragments generated from explosions, collisions, or faulty payload assembly.

Loading next visibility...
Identifier
42124, 1981-053QL
Orbit
LEO
Country
Flag of CISCIS
Related business
Manufacturer
Unknown
Mission
Spacecraft
Bus & Motor
Unknown
Mass
Unknown
Launch date (UTC)
1981-06-04 (45 years ago)
Launch vehicle
Unknown
Launch site
Plesetsk Missile And Space Complex (PKMTR)
Object type
Payload
Rocket body
Debris
Shape & HBR
Unknown shape, 0.1 m
Radar Cross Section
Small (<0.1 m²)

Expand to show TLE details & history
Last TLE update: 18 hours ago

TLE from 18 hours ago
0 COSMOS 1275 DEB
1 42124U 81053QL  25352.75003484  .00000717  00000-0  78850-3 0  9994
2 42124  83.0093 101.9227 0122216  44.6198 106.3089 13.67707001601293
Epoch: 2025-12-18T18:00Z
TLE epoch observation values (Epoch: 2025-12-18T18:00:03.010Z)
Latitude
27.54819°
Longitude
-79.33929°
Altitude
1,037.544 km
Speed
7.322 km/s
True Right ascension
18h 33m 05s
True Declination
27° 24' 46"
Sunlit
Object was in daylight at epoch
Visualization orbit readout
Latitude
Unknown
Longitude
Unknown
Altitude
Unknown
Speed
Unknown
Apparent Right ascension
Unknown
Apparent Declination
Unknown
Sunlit
N/A
Visualization observer readout
Local Sidereal Time
10:52:25
Azimuth
Unknown
Elevation
Unknown
Doppler factor
Unknown
Orbital elements
Apogee altitude
1,095.204 km
Perigee altitude
914.737 km
Semi-major axis
7,383.107 km
Eccentricity
0.01222
Inclination
83.0093°
RAAN
101.9227°
Arg. of periapsis
44.6198°
True anomaly
107.64717°
Mean anomaly
106.3089°
Eccentric anomaly
106.97863°
Mean motion
3.42125 °/min
Orbital period
105.22 mins
BSTAR
0.0007885
Loading maneuver chart data...
Computing Atmospheric mass density...
Loading historical data...
Loading historical data...
Loading historical data...
Loading historical data...
Loading historical data...
Loading historical data...
Loading historical data...

Documentation

Showing up to 5 results
|